Location: Dompnac
(44.5644°N, 4.1026°E)
Time: 10:57:33
(UTC+00:00)

Cosmos 2263 Rocket - Pass Details

Date: 19 September 2020
Orbit: 822 x 850 km, 71.0° (Epoch: 29 October)

Event Time Altitude Azimuth Distance (km) Brightness Sun altitude
Rises 19:13:30 0° 229° (SW) 3,347 5.8 -16.1°
Reaches altitude 10° 19:16:06 10° 238° (WSW) 2,419 5.1 -16.6°
Maximum altitude 19:21:12 37° 305° (NW) 1,273 3.7 -17.4°
Drops below altitude 10° 19:26:22 10° 12° (NNE) 2,445 4.7 -18.3°
Sets 19:29:01 0° 21° (NNE) 3,387 5.4 -18.7°
